[[{"header":{"parameterUnit":"m.s-1","parameterCategory":1,"la1":30.2991,"la2":30.254,"lo1":-89.0895,"lo2":-89.0444,"dx":0.0017,"dy":0.0017,"nx":28,"ny":28,"refTime":"2023-01-09T03:00:00:Z","depth":0,"parameterNumber":2,"parameterNumberName":"U-component_of_WINDS"},"data":[0,0,0,0,0,0,0,0,0,0,0,0,0,0,0,0,0,0,0,0,0,0,0,0,0,0,0,0,0,0,0,0,0,0,0,0,0,0,0,0,0,0,0,0,0,0,0,0,0,0,0,0,0,0,0,0,0,0,-0.3977,-0.3977,0,-0.406,-0.4061,-0.4062,-0.4092,-0.4092,-0.4091,-0.4091,-0.4179,-0.4181,-0.4184,0,0,0,0,0,0,0,0,0,0,0,0,0,-0.3843,-0.3846,-0.3976,-0.3977,-0.3979,-0.406,-0.4061,-0.4062,-0.4092,-0.4092,-0.4091,-0.4091,-0.4178,-0.4181,-0.4184,0,0,0,0,0,0,0,0,0,0,0,0,0,-0.3912,-0.3846,-0.3976,-0.4003,-0.4006,-0.406,-0.4061,-0.4062,-0.4092,-0.4092,-0.4091,-0.4091,-0.4177,-0.418,-0.4184,-0.4217,0,0,-0.4196,-0.4198,0,0,0,0,0,0,0,0,-0.3908,-0.3916,-0.3998,-0.4001,-0.4005,-0.4065,-0.4046,-0.4114,-0.4092,-0.406,-0.4091,-0.4091,-0.4141,-0.4148,-0.4165,-0.4222,-0.4225,-0.4197,-0.4199,-0.4201,-0.4202,0,0,0,0,0,0,0,-0.3903,-0.3913,-0.401,-0.3999,-0.4004,-0.4011,-0.402,-0.4059,-0.4102,-0.4062,-0.4065,-0.4074,-0.4143,-0.4161,-0.4167,-0.4227,-0.4197,-0.42,-0.4202,-0.4204,-0.4313,-0.4313,0,0,0,0,0,0,-0.3893,-0.3909,-0.4007,-0.4012,-0.3954,-0.4014,-0.4024,-0.4046,-0.4102,-0.411,-0.4074,-0.4075,-0.4154,-0.4162,-0.417,-0.4212,-0.4201,-0.4204,-0.4207,-0.4312,-0.4313,-0.4314,0,0,0,0,0,0,-0.3891,-0.3902,-0.4004,-0.3961,-0.3975,-0.4017,-0.4041,-0.4048,-0.4066,-0.4111,-0.4119,-0.4085,-0.4154,-0.4165,-0.4205,-0.4215,-0.4206,-0.421,-0.4312,-0.4313,-0.4313,-0.4295,0,0,0,0,0,0,-0.3887,-0.3901,-0.3914,-0.3961,-0.3977,-0.4037,-0.4042,-0.405,-0.4072,-0.4074,-0.4123,-0.413,-0.4155,-0.4199,-0.4209,-0.422,-0.4213,-0.4311,-0.4312,-0.4313,-0.4295,-0.4295,-0.4296,0,0,0,0,0,-0.3882,-0.3906,-0.3914,-0.3926,-0.3994,-0.4037,-0.4046,-0.4074,-0.4073,-0.4087,-0.4115,-0.4129,-0.4212,-0.4203,-0.4214,-0.4227,-0.4311,-0.4312,-0.4313,-0.4295,-0.4295,-0.4296,0,0,0,0,0,0,-0.386,-0.3913,-0.3923,-0.3963,-0.3995,-0.4042,-0.406,-0.4073,-0.4107,-0.4108,-0.4141,-0.4151,-0.4189,-0.4212,-0.42,-0.4261,-0.4262,-0.4266,-0.4245,-0.4245,-0.4245,-0.4239,-0.4216,0,0,0,0,0,-0.386,-0.389,-0.3935,-0.3966,-0.3982,-0.4018,-0.4038,-0.4056,-0.4091,-0.4105,-0.4137,-0.4171,-0.4204,-0.4226,-0.426,-0.4298,-0.4309,-0.4313,-0.4313,-0.4313,-0.4316,-0.4337,-0.4338,-0.4318,-0.4318,-0.4318,0,0,-0.386,-0.3893,-0.391,-0.3963,-0.399,-0.4021,-0.4029,-0.4062,-0.4085,-0.4111,-0.415,-0.4174,-0.4214,-0.4253,-0.4272,-0.4274,-0.4323,-0.4314,-0.4314,-0.4317,-0.4338,-0.434,-0.4342,-0.4318,-0.4318,-0.4318,0,0,-0.3876,-0.3904,-0.3933,-0.3959,-0.3999,-0.4023,-0.403,-0.4074,-0.4091,-0.4131,-0.415,-0.4178,-0.4236,-0.4263,-0.4284,-0.4308,-0.4321,-0.4318,-0.4319,-0.4339,-0.4341,-0.4342,-0.435,-0.4353,-0.432,-0.432,-0.432,0,-0.3872,-0.3918,-0.3946,-0.3977,-0.3999,-0.4022,-0.4051,-0.4075,-0.4125,-0.414,-0.4141,-0.4212,-0.4241,-0.4286,-0.4291,-0.4308,-0.4317,-0.4313,-0.4338,-0.434,-0.4342,-0.435,-0.4353,-0.432,-0.432,-0.432,-0.432,0,-0.391,-0.3942,-0.3961,-0.4006,-0.4031,-0.4061,-0.4092,-0.4113,-0.4129,-0.4152,-0.4192,-0.4226,-0.4267,-0.4279,-0.4295,-0.4326,-0.4325,-0.4332,-0.4334,-0.4343,-0.4351,-0.4354,-0.4319,-0.4319,-0.4319,-0.4319,0,0,-0.3917,-0.3976,-0.3982,-0.4002,-0.4048,-0.4073,-0.4103,-0.4142,-0.4159,-0.4192,-0.4218,-0.4265,-0.4271,-0.4295,-0.4314,-0.4331,-0.4347,-0.4336,-0.4337,-0.4336,-0.4382,-0.4377,-0.438,-0.4355,-0.4356,-0.4357,-0.4378,0,-0.3939,-0.3993,-0.4018,-0.4062,-0.4091,-0.4112,-0.4138,-0.4169,-0.4191,-0.4219,-0.4243,-0.4276,-0.4281,-0.4296,-0.4314,-0.4341,-0.4356,-0.434,-0.438,-0.4381,-0.4369,-0.4384,-0.4379,-0.4398,-0.4382,-0.4382,-0.4383,0,-0.3972,-0.4003,-0.4049,-0.4089,-0.4103,-0.4126,-0.4162,-0.4189,-0.4223,-0.4238,-0.4264,-0.4282,-0.4314,-0.4312,-0.4357,-0.4345,-0.4363,-0.4378,-0.438,-0.4385,-0.4383,-0.4389,-0.4405,-0.4408,-0.4388,-0.4388,-0.4387,0,-0.3971,-0.4025,-0.4059,-0.4076,-0.4124,-0.414,-0.416,-0.4194,-0.4215,-0.4247,-0.4261,-0.4296,-0.4315,-0.4342,-0.4369,-0.4365,-0.441,-0.4412,-0.4423,-0.4423,-0.4433,-0.4432,-0.4451,-0.4444,-0.4444,-0.4443,-0.4443,0,-0.3993,-0.402,-0.4059,-0.408,-0.4111,-0.4139,-0.4169,-0.4191,-0.4221,-0.4246,-0.4267,-0.429,-0.4324,-0.4352,-0.4373,-0.4406,-0.4414,-0.4427,-0.4432,-0.4425,-0.4424,-0.4438,-0.4437,-0.4444,-0.4444,-0.4444,-0.4444,0,-0.3998,-0.4025,-0.4064,-0.4105,-0.4116,-0.4137,-0.4172,-0.4193,-0.4215,-0.4247,-0.4257,-0.4292,-0.4325,-0.4354,-0.4399,-0.4412,-0.4446,-0.4453,-0.4435,-0.4437,-0.4447,-0.4446,-0.4477,-0.4482,-0.4471,-0.4471,-0.4471,0,-0.401,-0.4031,-0.4074,-0.4092,-0.4112,-0.4141,-0.4162,-0.419,-0.4211,-0.4251,-0.4267,-0.4301,-0.4331,-0.4383,-0.4413,-0.4446,-0.4454,-0.4462,-0.4459,-0.4451,-0.4454,-0.4452,-0.4454,-0.4462,-0.4462,-0.4462,-0.4462,0,-0.4028,-0.404,-0.4069,-0.4103,-0.4127,-0.4155,-0.4183,-0.4197,-0.423,-0.4252,-0.4286,-0.4309,-0.4353,-0.4387,-0.4424,-0.4445,-0.4459,-0.4463,-0.4467,-0.446,-0.4449,-0.4455,-0.4435,-0.4462,-0.4462,-0.4462,-0.4462,-0.4462,-0.4037,-0.4056,-0.4089,-0.4121,-0.4144,-0.417,-0.4191,-0.4215,-0.4244,-0.4282,-0.4296,-0.4331,-0.4363,-0.4414,-0.4435,-0.4462,-0.4464,-0.4471,-0.4472,-0.4474,-0.4472,-0.4444,-0.4469,-0.4469,-0.4469,-0.4469,-0.4469,0,-0.4056,-0.4078,-0.4106,-0.4145,-0.4169,-0.4179,-0.421,-0.423,-0.426,-0.4289,-0.4317,-0.4355,-0.4387,-0.4419,-0.4453,-0.4468,-0.4475,-0.4476,-0.4476,-0.448,-0.4469,-0.4461,-0.447,-0.447,-0.447,-0.447,-0.447,-0.447,-0.4069,-0.4102,-0.4117,-0.4162,-0.4184,-0.4217,-0.4234,-0.4257,-0.428,-0.4322,-0.4349,-0.4368,-0.4398,-0.4434,-0.4464,-0.4472,-0.4484,-0.4483,-0.4493,-0.4482,-0.4481,-0.4481,-0.4474,-0.4485,-0.4485,-0.4502,-0.4502,-0.4502]},{"header":{"parameterUnit":"m.s-1","parameterCategory":1,"la1":30.2991,"la2":30.254,"lo1":-89.0895,"lo2":-89.0444,"dx":0.0017,"dy":0.0017,"nx":28,"ny":28,"refTime":"2023-01-09T03:00:00:Z","depth":0,"parameterNumber":3,"parameterNumberName":"V-component_of_WINDS"},"data":[0,0,0,0,0,0,0,0,0,0,0,0,0,0,0,0,0,0,0,0,0,0,0,0,0,0,0,0,0,0,0,0,0,0,0,0,0,0,0,0,0,0,0,0,0,0,0,0,0,0,0,0,0,0,0,0,0,0,-0.4498,-0.4498,0,-0.4466,-0.4466,-0.4465,-0.4436,-0.4435,-0.4435,-0.4434,-0.44,-0.44,-0.4399,0,0,0,0,0,0,0,0,0,0,0,0,0,-0.4531,-0.453,-0.4498,-0.4498,-0.4497,-0.4466,-0.4466,-0.4465,-0.4436,-0.4435,-0.4435,-0.4434,-0.4401,-0.44,-0.4399,0,0,0,0,0,0,0,0,0,0,0,0,0,-0.4509,-0.453,-0.4498,-0.4479,-0.4477,-0.4466,-0.4466,-0.4465,-0.4436,-0.4435,-0.4435,-0.4434,-0.4401,-0.44,-0.4399,-0.4405,0,0,-0.4397,-0.4396,0,0,0,0,0,0,0,0,-0.4511,-0.4508,-0.4482,-0.448,-0.4478,-0.4454,-0.4465,-0.4445,-0.4436,-0.4451,-0.4434,-0.4434,-0.4419,-0.4416,-0.4411,-0.4403,-0.4402,-0.4396,-0.4396,-0.4396,-0.4395,0,0,0,0,0,0,0,-0.4512,-0.4509,-0.4485,-0.4482,-0.4479,-0.4471,-0.4467,-0.4461,-0.4438,-0.445,-0.4448,-0.4444,-0.4417,-0.4412,-0.441,-0.4401,-0.4396,-0.4396,-0.4395,-0.4395,-0.4394,-0.4394,0,0,0,0,0,0,-0.4517,-0.4511,-0.4486,-0.4484,-0.4493,-0.4471,-0.4467,-0.4462,-0.4438,-0.4434,-0.4445,-0.4443,-0.4414,-0.4411,-0.4409,-0.4413,-0.4396,-0.4395,-0.4394,-0.4393,-0.4394,-0.4394,0,0,0,0,0,0,-0.4518,-0.4515,-0.4488,-0.4497,-0.4493,-0.4471,-0.4466,-0.4462,-0.4457,-0.4435,-0.443,-0.4444,-0.4414,-0.441,-0.4406,-0.4412,-0.4394,-0.4394,-0.4393,-0.4393,-0.4394,-0.4422,0,0,0,0,0,0,-0.4519,-0.4516,-0.4518,-0.4497,-0.4493,-0.4486,-0.4467,-0.4462,-0.4456,-0.4453,-0.4433,-0.4429,-0.4413,-0.4407,-0.4405,-0.441,-0.4393,-0.4392,-0.4393,-0.4394,-0.442,-0.4424,-0.4426,0,0,0,0,0,-0.452,-0.4528,-0.4519,-0.4516,-0.4496,-0.4486,-0.4484,-0.4466,-0.4456,-0.4458,-0.4444,-0.4429,-0.4411,-0.4407,-0.4404,-0.4409,-0.4392,-0.4393,-0.4394,-0.4419,-0.4423,-0.4426,0,0,0,0,0,0,-0.455,-0.4525,-0.4514,-0.4515,-0.4503,-0.4481,-0.4484,-0.447,-0.446,-0.4458,-0.4436,-0.4431,-0.4429,-0.4418,-0.4414,-0.4412,-0.4399,-0.44,-0.4419,-0.4423,-0.4426,-0.4428,-0.4392,0,0,0,0,0,-0.4556,-0.4552,-0.453,-0.4532,-0.4527,-0.4506,-0.4502,-0.4489,-0.4475,-0.447,-0.4455,-0.4441,-0.4432,-0.4427,-0.4418,-0.4418,-0.4413,-0.442,-0.4423,-0.4426,-0.4426,-0.4424,-0.4427,-0.4398,-0.4398,-0.4398,0,0,-0.457,-0.4556,-0.4554,-0.4538,-0.4527,-0.4522,-0.4502,-0.4498,-0.4493,-0.4469,-0.4463,-0.4452,-0.4435,-0.4433,-0.4431,-0.4424,-0.4433,-0.4427,-0.4429,-0.4428,-0.4426,-0.4428,-0.4431,-0.4399,-0.4399,-0.4398,0,0,-0.4593,-0.4582,-0.4582,-0.4571,-0.4555,-0.4541,-0.4541,-0.4521,-0.4512,-0.4506,-0.4487,-0.4481,-0.4466,-0.4455,-0.4447,-0.4463,-0.4448,-0.446,-0.4475,-0.4473,-0.4476,-0.4478,-0.4482,-0.4484,-0.4461,-0.4461,-0.4461,0,-0.4612,-0.4604,-0.4584,-0.458,-0.4573,-0.4551,-0.455,-0.454,-0.4522,-0.4517,-0.4509,-0.4489,-0.4476,-0.447,-0.4474,-0.4469,-0.4467,-0.4463,-0.4477,-0.4479,-0.448,-0.4484,-0.4486,-0.4462,-0.4462,-0.4462,-0.4462,0,-0.4627,-0.4622,-0.4624,-0.4607,-0.46,-0.4598,-0.4577,-0.4572,-0.4559,-0.4545,-0.4538,-0.4522,-0.4508,-0.4505,-0.4493,-0.4497,-0.4493,-0.4481,-0.4468,-0.4485,-0.4488,-0.4489,-0.4464,-0.4464,-0.4463,-0.4463,0,0,-0.4669,-0.464,-0.4641,-0.4632,-0.4611,-0.4606,-0.4602,-0.4588,-0.4584,-0.4571,-0.4566,-0.4554,-0.4542,-0.4533,-0.4519,-0.4517,-0.4529,-0.4506,-0.4505,-0.451,-0.4531,-0.4539,-0.4542,-0.4519,-0.4519,-0.452,-0.4532,0,-0.4688,-0.468,-0.4662,-0.466,-0.4654,-0.4631,-0.4627,-0.4613,-0.46,-0.4591,-0.4576,-0.4567,-0.4553,-0.4547,-0.4545,-0.4528,-0.4533,-0.4527,-0.4513,-0.4513,-0.4519,-0.4543,-0.4553,-0.4566,-0.4533,-0.4533,-0.4533,0,-0.4709,-0.4697,-0.4695,-0.4673,-0.467,-0.4667,-0.4652,-0.4645,-0.4628,-0.4618,-0.4607,-0.4591,-0.4583,-0.4571,-0.456,-0.4556,-0.4549,-0.454,-0.454,-0.4538,-0.4525,-0.4542,-0.4569,-0.4571,-0.4535,-0.4535,-0.4535,0,-0.4739,-0.4722,-0.4719,-0.4712,-0.4686,-0.4684,-0.4673,-0.4656,-0.4648,-0.4635,-0.4629,-0.4615,-0.4607,-0.4596,-0.4575,-0.4568,-0.4566,-0.4552,-0.4556,-0.4557,-0.4557,-0.4558,-0.4584,-0.4553,-0.4553,-0.4553,-0.4553,0,-0.4762,-0.4761,-0.4731,-0.4729,-0.4727,-0.4704,-0.4702,-0.4689,-0.4673,-0.4667,-0.4645,-0.4639,-0.4613,-0.4603,-0.4587,-0.4579,-0.4576,-0.4567,-0.4562,-0.4569,-0.457,-0.4564,-0.4563,-0.4554,-0.4554,-0.4553,-0.4553,0,-0.4795,-0.4776,-0.4769,-0.4745,-0.4739,-0.4738,-0.4717,-0.4713,-0.4697,-0.4689,-0.4686,-0.4661,-0.4648,-0.4627,-0.4608,-0.4596,-0.4592,-0.4585,-0.4598,-0.4595,-0.4601,-0.46,-0.4624,-0.4625,-0.4594,-0.4595,-0.4595,0,-0.4811,-0.481,-0.4785,-0.478,-0.477,-0.4761,-0.4753,-0.473,-0.4722,-0.4701,-0.4699,-0.4685,-0.4673,-0.4653,-0.4632,-0.4617,-0.4609,-0.4618,-0.4607,-0.4612,-0.4608,-0.4609,-0.4608,-0.4621,-0.4622,-0.4622,-0.4622,0,-0.4841,-0.4831,-0.4821,-0.4807,-0.4798,-0.4786,-0.4772,-0.4768,-0.4742,-0.4734,-0.4721,-0.4711,-0.4691,-0.4677,-0.4658,-0.4645,-0.4629,-0.4626,-0.4626,-0.4632,-0.464,-0.4635,-0.4605,-0.4626,-0.4625,-0.4625,-0.4625,-0.4625,-0.4866,-0.4863,-0.4845,-0.4834,-0.4821,-0.4809,-0.4803,-0.4787,-0.4776,-0.4758,-0.4745,-0.4732,-0.4712,-0.4686,-0.4674,-0.4662,-0.4655,-0.4655,-0.4655,-0.4656,-0.4658,-0.4642,-0.4659,-0.4659,-0.4659,-0.4658,-0.4658,0,-0.4895,-0.4882,-0.4872,-0.4853,-0.4844,-0.4829,-0.4813,-0.4806,-0.4795,-0.4779,-0.4767,-0.475,-0.4735,-0.4713,-0.4696,-0.4691,-0.4683,-0.4687,-0.4687,-0.4684,-0.4666,-0.4667,-0.4694,-0.4694,-0.4694,-0.4694,-0.4694,-0.4694,-0.4909,-0.4903,-0.4891,-0.4877,-0.4864,-0.4852,-0.4844,-0.4831,-0.4818,-0.4801,-0.4788,-0.4774,-0.4754,-0.4735,-0.472,-0.4714,-0.4708,-0.4715,-0.4706,-0.4689,-0.4686,-0.4683,-0.4684,-0.4714,-0.4714,-0.4725,-0.4725,-0.4725]}]]